Location: My-Spot Observatory
(42.5758°N, 83.4144°W)
Time: 20:50:03
(UTC-04:00)

Envisat - Visible Passes

Search period start: 20 August 2018 00:00
Search period end: 30 August 2018 00:00
Orbit: 764 x 766 km, 98.2° (Epoch: 20 August)

Date Brightness Start Highest point End Pass type
(mag) Time Alt. Az. Time Alt. Az. Time Alt. Az.
20 Aug 5.7 22:00:31 10° SW 22:03:36 16° W 22:06:42 10° NW visible
21 Aug 4.7 21:21:56 10° SSW 21:26:32 35° W 21:31:11 10° NNW visible
22 Aug 3.2 20:44:37 10° S 20:49:41 77° WSW 20:54:48 10° NNW visible
23 Aug 5.5 21:48:36 10° SW 21:52:18 20° W 21:56:03 10° NW visible
24 Aug 4.2 21:10:30 10° S 21:15:19 44° W 21:20:11 10° NNW visible
25 Aug 6.0 22:16:40 10° WSW 22:18:11 11° W 22:19:42 10° WNW visible
26 Aug 5.2 21:36:53 10° SSW 21:41:03 25° W 21:45:14 10° NW visible
27 Aug 3.8 20:59:08 10° S 21:04:06 56° W 21:09:07 10° NNW visible
28 Aug 5.8 22:04:06 10° WSW 22:06:52 15° W 22:09:39 10° NW visible
29 Aug 4.8 21:25:18 10° SSW 21:29:47 32° W 21:34:20 10° NNW visible
